Regional Weather Roundup
Issued by NWS Jackson, KY

Home | Current Version | Previous Version | Graphics & Text | Print | Product List | Glossary On
Versions: 1 2 3 4 5 6 7 8 9 10 11 12 13 14 15 16 17 18 19 20 21 22 23 24 25 26 27
000
ASUS43 KJKL 211710
RWRJKL

EAST KENTUCKY HOURLY WEATHER ROUNDUP
NATIONAL WEATHER SERVICE JACKSON KY
1200 PM EST TUE FEB 21 2017

NOTE: "FAIR" INDICATES FEW OR NO CLOUDS BELOW 12,000 FEET WITH
NO SIGNIFICANT WEATHER AND/OR OBSTRUCTIONS TO VISIBILITY.

* THESE REPORTS ARE NOT UNDER NWS QUALITY CONTROL AND MAY NOT
  REPORT WEATHER SUCH AS PRECIPITATION AND FOG.

KYZ079-080-083-085-087-088-110-112-115-119-120-211800
...EASTERN KENTUCKY...

CITY           SKY/WX    TMP DP  RH WIND       PRES   REMARKS
JACKSON        SUNNY     70  37  29 S8        30.08F
LONDON         SUNNY     67  37  33 S13       30.07S
SOMERSET*      PTSUNNY   64  43  45 S7        30.07S
MONTICELLO*    MOSUNNY   71  49  45 SE8G23    30.06S
WILLIAMSBURG*  SUNNY     66  41  39 SE10      30.07R
MIDDLESBORO*   MOSUNNY   66  42  40 CALM      30.09S
HARLAN APT*    MOSUNNY   68  36  30 NE6       30.09F
PIKE CO APT*     N/A     67  39  36 CALM      30.09S
BIG SANDY APT* PTSUNNY   69  38  32 SW6       30.08F
MOREHEAD APT*  CLOUDY    72  41  33 SW13G21   30.07F
ASHLAND*       CLOUDY    63  45  51 E3        30.04F
$$

KYZ035-036-041-042-044-050-067-078-099-211800
...CENTRAL KENTUCKY...

CITY           SKY/WX    TMP DP  RH WIND       PRES   REMARKS
MT STERLING*   PTSUNNY   70  45  40 SW13G18   30.06F
FLEMING/MASON* PTSUNNY   64  44  48 S5        30.06S
DANVILLE*      PTSUNNY   66  45  45 S8        30.05F
LEXINGTON      PTSUNNY   69  44  40 S12       30.04F
FRANKFORT      CLOUDY    72  47  40 S12       30.01F
LOUISVILLE     CLOUDY    70  46  42 S8        29.99F
LEBANON*       PTSUNNY   66  46  48 S17       30.02F
GLASGOW*       CLOUDY    69  48  47 S10       30.00F
BOWLING GREEN  CLOUDY    70  50  49 S8        29.99F
$$

KYZ091>093-OHZ055-061-077-WVZ005-015-034-035-042-211800
...SOUTHERN OHIO/WEST VIRGINIA...

CITY           SKY/WX    TMP DP  RH WIND       PRES   REMARKS
COVINGTON      CLOUDY    65  47  52 SW8       30.02S
COLUMBUS       PTSUNNY   63  44  50 S8        30.03S
DAYTON         CLOUDY    60  44  55 SW12      30.02S
WILMINGTON     PTSUNNY   65  48  54 SW8       30.02S
HUNTINGTON     CLOUDY    68  38  33 S6        30.06F
CHARLESTON     MOSUNNY   66  39  37 S6        30.08F
PINEVILLE*     MOSUNNY   68  31  24 MISG      30.14F
BECKLEY        CLOUDY    56  37  49 SE10G21   30.13F
BLUEFIELD      CLOUDY    55  39  54 S8G17     30.15F
LOGAN CO APT*    N/A     66  37  34 SW7       30.09S
$$

VAZ002-007-008-TNZ017-027-036-066-071-211800
...SOUTHWEST VIRGINIA/EAST TENNESSEE...

CITY           SKY/WX    TMP DP  RH WIND       PRES   REMARKS
WISE*          MOSUNNY   64  34  32 SW13      30.12S
JONESVILLE*      N/A     68  39  34 S3        30.11F
ABINGDON*      MOSUNNY   66  39  37 S9        30.11F
BRISTOL        PTSUNNY   68  41  37 SE12      30.10F
MORRISTOWN*    SUNNY     68  41  37 VRB5G12   30.08S
SEVIERVILLE*   SUNNY     66  45  45 E3        30.06F
KNOXVILLE      CLOUDY    69  44  40 N5        30.06S
LAFOLLETTE*    CLOUDY    66  43  42 SE5       30.11R
OAK RIDGE      MOSUNNY   68  43  40 VRB3      30.09S
CROSSVILLE     SUNNY     65  47  52 S13G24    30.07S
NASHVILLE      CLOUDY    68  51  54 S18G24    29.98F
$$

...KEY TO REMARKS...
VSB - VISIBILITY IN MILES
WCI - WIND CHILL INDEX
HX  - HEAT INDEX

$$




USA.gov is the U.S. government's official web portal to all federal, state and local government web resources and services.